www.pogodaiklimat.ru

Погода и климат >> Архив погоды >> Румыния >> Орадя


ПОГОДА в Орадя

  • Прогноз погоды в Орадя
  • Монитор погоды в Орадя

АРХИВ ПОГОДЫ в Орадя

Время (UTC), дата Ветер
(напр.,м/с)
 
Видим.   Явления Облачность Т
(С)
Тd
(С)
f
(%)
Тe
(С)
Тes
(С)
Комфортность P
(гПа)
Po
(гПа)
Тmin
(С)
Tmax
(С)
R
(мм)
R24
(мм)
S
(см)
03 13.07 В 2-3
{4}
10 км {ливн. осадки} 10/5 600 м
[Cb calv Ac As]
+15.4 +13.5 88 +15 +15 1011.6 995.3 0.2
06 13.07 ЮВ 4-5
{5}
10 км слаб. ливневой дождь 10/6 600 м
[Cb calv Ac As]
+14.9 +14.2 96 +14 +14 1011.5 995.2 +14.7 +20.0 3
09 13.07 Ю 3-6
{6}
10 км {ливн. осадки} 9/5 600 м
[Cb calv Ac As]
+18.4 +14.3 77 +19 +22 1011.5 995.4 0.1
12 13.07 Ю 4-7
{7}
10 км {ливн. осадки} 9/6 600 м
[Cb calv Ac As]
+21.9 +13.9 60 +25 +27 комфорт 1010.1 994.1
15 13.07 Ю 2-2
{14}
4000 м гроза, ливневой дождь 10/8 600 м
[Cb cap Ac As]
+14.1 +13.6 97 +13 +14 1011.2 994.8 5
18 13.07 ЮВ 3-4
{4}
10 км {гроза, ливн. осадки} 10/5 600 м
[Cb calv Ac As]
+15.0 +14.2 95 +14 +14 1009.9 993.6 +13.8 +22.7 4
21 13.07 В 1-2
{3}
10 км 9/5 600 м
[Sc diur, vesp Ac As]
+14.2 +13.4 95 +14 +14 1010.3 993.9
00 14.07 В 1-2
{2}
10 км 8/0
[Ac As]
+13.7 +13.2 97 +14 +14 1009.9 993.5
03 14.07 В 1-3
{3}
10 км 9/0
[Ac As]
+13.5 +12.8 96 +14 +14 1009.4 993.1
06 14.07 ЮВ 1-1
{3}
10 км 3/0
[Ac trans]
+16.0 +13.7 86 +17 +22 1009.5 993.3 +12.9 +16.0
09 14.07 СЗ 2-3
{3}
10 км 5/1 600 м
[Cb calv Ac trans]
+19.9 +14.0 69 +22 +33 комфорт 1009.6 993.6
12 14.07 С 3-6
{6}
10 км 3/1 600 м
[Cu med, cong Ac trans]
+22.0 +14.6 63 +25 +36 комфорт 1008.9 993.0
15 14.07 С 5-8
{8}
10 км 4/1 600 м
[Cb calv Ac cuf Ci ing]
+20.8 +14.7 68 +24 +26 комфорт 1008.9 993.0
18 14.07 С 2-4
{5}
10 км 8/3 600 м
[Cb calv Ac cuf Ci ing]
+20.8 +14.5 67 +24 +24 комфорт 1009.2 993.3 +16.0 +23.1
21 14.07 СЗ 1-2
{3}
10 км {гроза, ливн. осадки} 1/1 600 м
[Cb calv]
+15.9 +14.3 90 +17 +17 1010.4 994.1 0.0
00 15.07 С 2-3
{3}
10 км {гроза, ливн. осадки} 10/0
[Ac As]
+14.9 +12.9 88 +15 +15 1010.7 994.4
03 15.07 СЗ 1-1
{2}
10 км 3/0
[Ac trans Ci fib]
+13.1 +12.2 94 +13 +13 1010.6 994.1
06 15.07 С 1-3
{3}
10 км ясно +16.1 +12.9 81 +17 +23 1011.0 994.7 +12.3 +20.8
09 15.07 С 4-7
{8}
10 км ясно +20.2 +13.3 65 +22 +33 комфорт 1011.0 995.0
12 15.07 С 3-7
{8}
10 км 1/1 600 м
[Cb calv]
+22.9 +12.2 51 +26 +38 жарко 1010.7 994.8
15 15.07 СЗ 4-8
{9}
10 км 3/3 600 м
[Cu med, cong]
+24.2 +7.7 35 +25 +27 комфорт 1010.6 994.8
18 15.07 С 3-5
{7}
10 км ясно +22.5 +5.7 34 +23 +23 комфорт 1011.1 995.2 +16.1 +24.6
21 15.07 штиль 0-1
{2}
10 км ясно +13.8 +11.3 85 +13 +13 1012.4 996.0
00 16.07 В 2-3
{3}
10 км ясно +12.5 +10.5 88 +12 +12 1012.8 996.4
03 16.07 В 1-2
{3}
10 км ясно +10.5 +9.5 94 +10 +10 1013.1 996.5
06 16.07 СВ 1-2
{3}
10 км ясно +16.6 +11.7 73 +17 +24 1013.0 996.8 +10.0 +22.6
09 16.07 С 3-5
{6}
10 км ясно +22.2 +13.1 56 +25 +38 комфорт 1012.4 996.5
12 16.07 СЗ 4-7
{7}
10 км 1/1 600 м
[Cu med, cong]
+24.6 +10.0 40 +26 +35 жарко 1012.0 996.2
15 16.07 СЗ 2-5
{6}
10 км 4/0
[Ci fib]
+25.8 +7.9 32 +26 +31 жарко 1010.9 995.2
18 16.07 СЗ 1-2
{4}
10 км ясно +24.9 +15.1 54 +28 +28 жарко 1010.6 994.8 +16.6 +26.1
21 16.07 ЮВ 2-2
{3}
10 км ясно +15.1 +10.1 72 +15 +15 1011.8 995.4
00 17.07 ЮВ 3-4
{4}
10 км 3/1 600 м
[Cb calv Ac trans]
+14.8 +10.8 77 +14 +14 1012.0 995.7
03 17.07 Ю 1-2
{3}
10 км ясно +12.4 +10.1 86 +12 +12 1011.6 995.1
06 17.07 ЮВ 1-2
{2}
10 км ясно +18.3 +10.7 61 +20 +26 1011.4 995.2 +12.1 +25.1
09 17.07 С 2-6
{6}
10 км ясно +22.0 +12.1 53 +24 +40 комфорт 1011.4 995.5
12 17.07 СЗ 4-7
{7}
10 км 6/6 600 м
[Cu med, cong]
+24.0 +11.6 46 +26 +30 жарко 1011.2 995.4
15 17.07 СЗ 4-6
{7}
10 км 4/4 600 м
[Cu med, cong]
+25.1 +10.9 41 +26 +29 жарко 1011.0 995.3
18 17.07 С 2-3
{4}
10 км 1/0
[Ac cuf]
+23.0 +9.6 43 +25 +25 комфорт 1011.1 995.2 +18.2 +25.4
21 17.07 В 2-3
{3}
10 км ясно +16.5 +11.9 74 +17 +17 1012.0 995.7
00 18.07 В 2-4
{4}
10 км ясно +14.3 +11.0 81 +14 +14 1012.7 996.3
03 18.07 В 2-4
{4}
10 км ясно +13.5 +10.7 83 +13 +13 1012.8 996.3
06 18.07 В 3-4
{5}
10 км 1/0
[Ci fib]
+17.2 +10.9 66 +17 +22 1013.0 996.8 +13.2 +23.0
09 18.07 штиль 0-2
{3}
10 км 4/0
[Ac cast Ci fib]
+24.2 +11.4 45 +26 +44 жарко 1013.0 997.1
12 18.07 З 1-4
{5}
10 км 8/1 600 м
[Cu hum Cs]
+25.6 +11.4 41 +27 +41 жарко 1013.1 997.3
15 18.07 З 4-6
{7}
10 км 9/4 600 м
[Cb calv Ac As]
+24.6 +12.3 46 +26 +27 жарко 1013.4 997.6
18 18.07 СЗ 2-3
{4}
10 км 10/5 600 м
[Cb calv Ac As]
+20.1 +14.5 70 +23 +23 комфорт 1014.0 997.9 +17.2 +27.2
21 18.07 ЮВ 1-2
{2}
10 км ясно +15.9 +14.3 90 +17 +17 1015.1 998.8
00 19.07 ЮВ 2-3
{3}
10 км ясно +14.2 +13.2 94 +14 +14 1015.7 999.3
03 19.07 В 2-3
{4}
10 км ясно +13.6 +12.6 94 +13 +13 1016.5 1000.0
06 19.07 ЮВ 2-4
{4}
10 км ясно +18.0 +14.0 77 +19 +24 1017.0 1000.7 +13.0 +20.1
09 19.07 В 1-2
{4}
10 км 3/0
[Ci fib]
+25.0 +13.0 47 +27 +44 жарко 1017.1 1001.2
12 19.07 З 2-4
{4}
10 км ясно +27.6 +12.2 38 +29 +45 жарко 1016.6 1000.9
15 19.07 СЗ 2-4
{4}
10 км 3/0
[Ci fib]
+28.2 +9.5 31 +28 +34 жарко 1015.6 999.9
18 19.07 З 2-2
{2}
10 км ясно +24.4 +13.6 51 +27 +27 жарко 1016.1 1000.2 +18.0 +29.2
21 19.07 В 3-3
{3}
10 км ясно +19.1 +13.8 71 +21 +21 комфорт 1017.3 1001.1
00 20.07 В 2-3
{4}
10 км ясно +16.7 +13.1 79 +17 +17 1018.1 1001.7

 

Местоположение метеостанции Орадя (Румыния): широта 47.03 долгота 21.90 высота над уровнем моря 140 м.

В архиве по умолчанию представлена погода в Орадя за последнюю неделю. Архивные данные за месяц целиком и за предыдущие месяцы, начиная с января 2011 года, Вы можете получить, выбрав интересующий диапазон дат из раскрывающегося списка и нажав кнопку "Ввод!".


*Определитесь, кто Вы:
робот инопланетянин человек

Внимание! Время в таблицах - всемирное. Для получения местного времени необходимо прибавить поправку, которая равна 2 ч.

Смотрите также архив погоды в соседних городах и на ближайших метеорологических станциях:

Погода в Холоде (Румыния) (32 км)
Погода в Сэкуени (Румыния) (39 км)
Погода в Думбравита де Кодру (Румыния) (49 км)
Погода в Бороде (Румыния) (53 км)
Погода в Дебрецене (Венгрия) (55 км)
Погода в Кишинеу-Криш (Румыния) (62 км)
Погода в Стана-де-Вале (Румыния) (67 км)
Погода в Бекешчабе (Венгрия) (68 км)
Погода в Штее (Румыния) (71 км)
Погода на Станции Vladeasa 1800 (Румыния) (74 км)

Пояснения к столбцам:

Ветер - указаны скорость ветра в м/с - средняя за 10 мин, порывы в срок и между сроками (в фигурных скобках) и направление, откуда дует ветер: С - северный, СВ - северо-восточный, В - восточный, ЮВ - юго-восточный, Ю - южный, ЮЗ - юго-западный, З - западный, СЗ - северо-западный.
Видимость - горизонтальная дальность видимости в метрах или километрах. При видимости от 1 до 10 км при отсутствии осадков обычно наблюдается дымка, при ухудшении видимости до 1 км и менее - туман. В сухую погоду видимость может ухудшаться дымом, пылью или мглою.
Явления - указаны атмосферные явления, наблюдавшиеся в срок или в последний час перед сроком; фигурными скобками обозначены явления, наблюдавшиеся между сроками (за 1-3 часа до срока); квадратными скобками обозначены град или гололедные отложения с указанием их диаметра в мм.
Облачность - указаны через наклонную черту общая и нижняя облачность в баллах и высота нижней границы облаков в метрах; квадратными скобками обозначены формы облаков: Ci - перистые, Cs - перисто-слоистые, Cc - перисто-кучевые, Ac - высококучевые, As - высокослоистые, Sc - слоисто-кучевые, Ns - слоисто-дождевые, Cu - кучевые, Cb - кучево-дождевые. Подробнее классификацию облаков см. в Атласе облаков (PDF).
T - Температура воздуха - температура, измеренная на высоте 2 м над землей.
Td - Температура точки росы - температура, при понижении до которой содержащийся в воздухе водяной пар достигнет насыщения.
f - Относительная влажность воздуха - влажноcть воздуха, измеренная на высоте 2 м над землей.
Te - Эффективная температура - температура, которую ощущает одетый по сезону человек в тени. Характеристика душности погоды. При расчете учитывается влияние влажности воздуха и скорости ветра на теплоощущения человека.
Tes - Эффективная температура на солнце - температура, которую ощущает человек, с поправкой на солнечный нагрев. Характеристика знойности погоды. Зависит от высоты солнца над горизонтом, облачности и скорости ветра. Ночью, в пасмурную погоду, а также при ветре 12 м/с и более поправка равна нулю.
P - Атмосферное давление - приведенное к уровню моря атмосферное давление.
Po - Атмосферное давление - измеренное на уровне метеостанции атмосферное давление.
Tmin - Минимальная температура - минимум температуры воздуха на высоте 2 м над землей.
Tmax - Максимальная температура - максимум температуры воздуха на высоте 2 м над землей.
R - Количество осадков - Количество выпавших осадков за период времени, мм. При наведении курсора мыши на число - период времени, за который выпало указанное количество осадков.
R24 - Количество осадков - Количество выпавших осадков за 24 часа, мм.
S - Снежный покров - Высота снежного покрова, см. При наведении курсора мыши на число - состояние снежного покрова и степень покрытия местности в баллах.